Henderson, KY

7:29 AM CST on November 19, 2019 (GMT -0600)
Henderson City-County

Weather History for KEHR - September, 2019

Change the Weather History Date:

Wednesday, September 11, 2019

  Actual Average Record
Temperature  
Mean Temperature 80 °F -  
Max Temperature 93 °F 81 °F 96 °F (1936)
Min Temperature 66 °F 59 °F 40 °F (1940)
Cooling Degree Days 14    
Growing Degree Days 30 (Base 50)    
Moisture  
Dew Point 69 °F    
Average Humidity 76    
Maximum Humidity 97    
Minimum Humidity 44    
Precipitation  
Precipitation 0.00 in - - ()
Sea Level Pressure  
Sea Level Pressure 30.16 in    
Wind  
Wind Speed 4 mph (SSW)    
Max Wind Speed 10 mph    
Max Gust Speed -    
Visibility 10 miles    
Events      
Averages and records for this station are not official NWS values.
T = Trace of Precipitation, MM = Missing Value Source: NWS Daily Summary

Daily Weather History Graph

Daily Weather History Graph

Search for Another Location

Airport or City:

Astronomy

Sep. 11, 2019 Rise Set
Actual Time 6:29 AM CDT 7:05 PM CDT
Civil Twilight 6:02 AM CDT 7:31 PM CDT
Nautical Twilight 5:31 AM CDT 8:02 PM CDT
Astronomical Twilight 4:59 AM CDT 8:34 PM CDT
Moon 6:13 PM CDT (9/11) 3:55 AM CDT (9/11)
Length of Visible Light 13h 28m
Length of Day
12h 36m
Waxing Gibbous, 95% of the Moon is Illuminated
Sep 11
Waxing Gibbous
Sep 13
Full
Sep 21
Last Quarter
Sep 28
New
Oct 5
First Quarter

Hourly Weather History & Observations

Time (CDT) Temp. Heat Index Dew Point Humidity Pressure Visibility Wind Dir Wind Speed Gust Speed Precip Events Conditions
12:56 AM 72.0 °F - 68.0 °F 87% 30.17 in 10.0 mi SSW 4.6 mph - N/A   Clear
1:56 AM 73.0 °F - 68.0 °F 84% 30.17 in 10.0 mi SSE 5.8 mph - N/A   Clear
2:56 AM 72.0 °F - 66.9 °F 84% 30.17 in 10.0 mi SSW 3.5 mph - N/A   Clear
3:56 AM 69.1 °F - 66.9 °F 93% 30.17 in 10.0 mi Calm Calm - N/A   Clear
4:56 AM 66.9 °F - 66.0 °F 97% 30.18 in 10.0 mi Calm Calm - N/A   Clear
5:56 AM 66.0 °F - 64.0 °F 93% 30.20 in 10.0 mi Calm Calm - N/A   Clear
6:56 AM 68.0 °F - 66.9 °F 96% 30.22 in 10.0 mi Calm Calm - N/A   Clear
7:56 AM 71.1 °F - 69.1 °F 93% 30.23 in 10.0 mi Calm Calm - N/A   Clear
8:56 AM 79.0 °F - 71.1 °F 77% 30.22 in 10.0 mi SSW 5.8 mph - N/A   Clear
9:56 AM 82.9 °F 88.0 °F 72.0 °F 69% 30.23 in 10.0 mi SSW 5.8 mph - N/A   Clear
10:56 AM 87.1 °F 93.6 °F 72.0 °F 61% 30.22 in 10.0 mi SSW 10.4 mph - N/A   Clear
11:56 AM 90.0 °F 97.9 °F 73.0 °F 57% 30.19 in 10.0 mi South 8.1 mph - N/A   Clear
12:56 PM 91.0 °F 97.6 °F 71.1 °F 52% 30.18 in 10.0 mi SSW 6.9 mph - N/A   Clear
2:56 PM 93.9 °F 99.1 °F 69.1 °F 44% 30.13 in 10.0 mi Variable 6.9 mph - N/A   Partly Cloudy
3:56 PM 93.0 °F 97.4 °F 68.0 °F 44% 30.12 in 10.0 mi SW 9.2 mph - N/A   Partly Cloudy
4:56 PM 91.9 °F 96.9 °F 69.1 °F 47% 30.10 in 10.0 mi SSW 8.1 mph - N/A   Mostly Cloudy
5:56 PM 90.0 °F 95.4 °F 70.0 °F 52% 30.09 in 10.0 mi SSW 5.8 mph - N/A   Partly Cloudy
6:56 PM 84.0 °F 88.4 °F 70.0 °F 63% 30.09 in 10.0 mi SW 3.5 mph - N/A   Clear
7:56 PM 77.0 °F - 71.1 °F 82% 30.10 in 9.0 mi SSW 3.5 mph - N/A   Clear
8:56 PM 73.0 °F - 70.0 °F 90% 30.11 in 10.0 mi Calm Calm - N/A   Clear
9:56 PM 72.0 °F - 69.1 °F 91% 30.11 in 10.0 mi Calm Calm - N/A   Clear
10:56 PM 71.1 °F - 69.1 °F 93% 30.09 in 10.0 mi South 3.5 mph - N/A   Clear
11:56 PM 70.0 °F - 68.0 °F 93% 30.10 in 10.0 mi South 4.6 mph - N/A   Clear